Regional & State Weather Roundups


512 
ASUS43 KLMK 110510
RWRKY 
KENTUCKY REGIONAL WEATHER ROUNDUP
NATIONAL WEATHER SERVICE LOUISVILLE KY
1200 AM EST MON DEC 11 2017
NOTE "FAIR" INDICATES FEW OR NO CLOUDS BELOW 12,000 FEET
WITH NO SIGNIFICANT WEATHER AND/OR OBSTRUCTIONS TO VISIBILITY.
KYZ001>023-026-027-061>063-070>075-110600-
WESTERN AND SOUTH CENTRAL KENTUCKY
  
CITY           SKY/WX    TMP DP  RH WIND       PRES   REMARKS
PADUCAH        CLEAR     38  29  70 W5        30.15S WCI  34          
HENDERSON      CLEAR     29  26  89 SW3       30.15R                  
OWENSBORO      CLEAR     29  24  82 CALM      30.15R                  
HOPKINSVILLE   CLEAR     39  25  56 SW12      30.14S WCI  32          
BOWLING GREEN  CLEAR     37  24  59 W3        30.15S                  
GLASGOW        CLEAR     34  22  61 CALM      30.14S                  
$$
KYZ024-025-028>034-038-045-046-053-110600-
NORTH CENTRAL KENTUCKY
  
CITY           SKY/WX    TMP DP  RH WIND       PRES   REMARKS
LOUISVILLE/SDF CLEAR     35  24  64 W7        30.12R WCI  29          
LOUISVILLE/LOU CLEAR     34  24  67 W5        30.12R WCI  30          
FORT KNOX      CLEAR     34  23  64 W9        30.11R WCI  26          
$$
KYZ035>037-039>044-047>052-055>060-089>105-110600-
NORTHEAST KENTUCKY
  
CITY           SKY/WX    TMP DP  RH WIND       PRES   REMARKS
LEXINGTON      CLEAR     32  20  61 SW8       30.10R WCI  25          
COVINGTON      CLEAR     31  23  72 W8        30.06R WCI  23          
FRANKFORT      CLEAR     32  19  58 SW8       30.09R WCI  25          
$$
KYZ054-064>069-076>088-106>120-110600-
SOUTHEAST KENTUCKY
  
CITY           SKY/WX    TMP DP  RH WIND       PRES   REMARKS
JACKSON        CLEAR     35  19  52 VRB6      30.09R WCI  30          
LONDON         CLOUDY    35  19  52 SW6       30.13S WCI  30          
SOMERSET       CLEAR     36  23  60 W6        30.15S WCI  31          
MIDDLESBORO    CLEAR     37  22  55 S7        30.16F WCI  31          
MONTICELLO     NOT AVBL                                               
$$